                ,  0.721,  0.869,  1.017,  1.165,  1.312,  1.460,  1.608,  1.756,  1.904,  2.052,  2.199,  2.347,  2.495,  2.643,  2.791,  2.938,  3.086,  3.234,  3.382,  3.530,  3.677,  3.825,  3.973,  4.121,  4.269,  4.417,  4.564,  4.712,  4.860,  5.008,  5.156,  5.303
1999/07/23 00:00,  999.0,  999.0,   38.7,   48.6,   37.8,   39.1,  999.0,   38.1,   29.9,   31.2,   29.1,  999.0,   38.1,   32.7,  999.0,   28.4,   24.6,   23.9,   22.9,   23.4,  999.0,   16.8,  999.0,  999.0,  999.0,   17.7,   21.3,   15.5,  999.0,  999.0,  999.0,  999.0
1999/07/23 00:10,   37.0,  999.0,   48.3,   46.2,   43.0,   36.8,  999.0,   39.1,   36.2,   31.0,   30.2,  999.0,   40.2,   32.4,   23.7,   29.7,   29.3,   24.5,   23.4,   24.8,   28.5,   17.7,  999.0,   14.1,  999.0,   18.2,   20.3,   18.8,   14.5,  999.0,  999.0,  999.0
1999/07/23 00:20,   37.3,   45.5,   52.8,   43.4,   47.5,   33.9,   30.8,   34.5,  999.0,   31.0,   34.1,   39.5,  999.0,   28.9,   27.3,   29.3,   27.3,   29.1,   21.0,   22.8,   23.2,   17.3,  999.0,  999.0,  999.0,   15.9,   15.8,   16.9,   14.6,  999.0,  999.0,   16.9
1999/07/23 00:30,   38.2,   43.6,   53.8,   54.5,   54.9,   35.1,   33.6,   38.9,   33.0,   34.4,   29.4,   37.5,  999.0,   34.8,   25.8,   30.0,   28.4,   28.2,   23.2,   23.2,   19.4,   15.0,  999.0,  999.0,  999.0,   16.5,   14.5,   17.8,  999.0,  999.0,   13.9,  999.0
1999/07/23 00:40,   42.2,   44.1,   56.4,   53.4,   58.4,   48.4,   37.1,   39.9,   34.1,   32.7,   29.6,   35.2,   36.5,   35.5,   29.4,   33.0,   28.4,   27.0,   29.8,   21.6,   17.0,   16.8,   17.5,   15.1,   15.9,  999.0,   14.4,   14.2,  999.0,  999.0,  999.0,  999.0
1999/07/23 00:50,   37.7,   45.6,   56.7,   51.0,   58.3,   45.7,   30.8,   35.6,   36.0,   31.3,   28.6,   34.9,   38.6,   38.6,   30.2,   34.3,   27.1,   31.0,   30.1,   23.3,   18.6,   16.5,   15.6,   15.9,   16.2,   12.4,   16.3,   15.4,  999.0,   14.1,   17.3,   15.8
1999/07/23 01:00,   33.1,   44.8,   56.5,   52.1,   56.8,   59.2,   35.7,   37.7,   34.7,   30.6,   28.7,   32.7,   35.9,   42.1,   33.6,   33.1,   30.8,   30.2,   29.5,   21.0,   21.0,   17.3,   17.7,   15.3,   15.6,  999.0,   14.9,   18.0,   16.7,   14.6,  999.0,   19.4
1999/07/23 01:10,   36.0,   45.9,   58.1,   53.0,   55.1,   52.7,   37.9,   42.4,   35.7,   26.9,   29.3,   33.4,  999.0,   45.1,   34.1,   29.8,   33.3,   29.7,   29.8,   25.2,   20.9,   15.4,   22.7,   17.9,   17.2,   17.6,   13.6,   16.7,   15.5,   19.2,  999.0,  999.0
1999/07/23 01:20,   31.3,   46.6,   53.4,   50.8,   51.9,   54.1,   36.7,   42.0,   30.9,   27.7,   28.2,   30.7,   33.7,   41.8,   34.8,   36.4,   31.9,   28.4,   26.7,   22.4,   23.1,   18.5,   13.6,   20.7,   19.2,   18.3,   18.3,   16.1,   19.2,   18.7,   18.2,  999.0
1999/07/23 01:30,   35.3,   50.4,   55.4,   49.3,   50.6,   54.0,   40.4,   41.9,   26.0,   29.9,   28.4,   35.3,   35.8,   26.6,   37.5,   35.4,   38.0,  999.0,   29.8,   21.9,   22.0,   22.2,  999.0,   18.2,   20.0,   14.8,   17.8,   17.3,  999.0,  999.0,  999.0,   17.5
1999/07/23 01:40,   30.9,   49.5,   56.8,   48.6,   54.8,   52.5,   37.8,   38.5,   25.3,   32.4,   27.6,   31.0,   30.9,   30.9,   38.0,   35.1,   34.8,   33.3,   34.1,   21.1,   23.8,   20.8,   16.5,   18.2,   26.4,   18.9,   18.4,   17.8,  999.0,   14.8,   22.6,   21.1
1999/07/23 01:50,   33.7,   49.9,   56.9,   50.1,   56.8,   59.6,   39.4,   40.9,   26.9,   31.5,   34.7,   27.0,   35.3,  999.0,   42.0,   37.4,   35.7,   33.7,   33.5,   21.6,   26.3,   17.8,   19.2,  999.0,   31.9,   26.7,   26.2,   14.6,  999.0,  999.0,  999.0,  999.0
1999/07/23 02:00,   38.9,   50.8,   56.1,   49.3,   47.3,   49.7,   44.2,   43.3,   29.3,   32.4,   31.2,   26.1,   39.7,   38.6,   26.3,   31.5,   33.6,   28.7,   30.5,   26.0,   21.8,   21.3,   17.2,   22.0,   32.6,   26.7,   32.0,   20.7,   17.8,   14.6,  999.0,  999.0
1999/07/23 02:10,   36.2,   46.3,   56.4,   50.3,   49.4,   49.4,   39.8,   41.5,   32.7,   37.0,   32.8,   24.5,   36.7,   33.7,   21.8,   29.6,   24.2,   29.4,   27.5,   28.0,   21.2,   17.5,   18.9,   19.4,   34.9,   21.0,   33.8,   27.8,   17.2,   17.9,  999.0,  999.0
1999/07/23 02:20,   36.6,   45.7,   58.3,   47.7,   47.8,   50.0,   42.3,   37.2,   32.6,   31.7,   30.0,   23.8,   38.6,   25.0,   19.7,   26.5,   23.4,   22.6,   24.8,   25.1,   21.6,  999.0,  999.0,   22.8,   35.2,   27.7,   34.1,   29.6,   16.7,   20.3,  999.0,  999.0
1999/07/23 02:30,   37.2,   52.9,   54.2,   45.1,   51.3,   46.5,   45.2,   31.3,   35.2,   25.8,   32.0,   27.3,   36.4,   22.7,   20.5,   26.0,  999.0,   20.2,   25.6,   27.0,   19.9,   17.1,  999.0,   26.2,   34.6,   26.4,   32.8,   27.8,   20.8,   22.2,  999.0,  999.0
1999/07/23 02:40,   36.9,   51.2,   51.5,   45.7,   49.7,   42.2,   40.1,   29.7,   33.3,   27.4,   32.9,   37.4,   22.6,   17.3,   27.5,   25.6,  999.0,   23.1,   22.3,   19.6,  999.0,   15.9,  999.0,   29.0,   31.5,   19.5,   28.4,   24.4,   18.3,   23.5,   16.6,  999.0
1999/07/23 02:50,   45.2,   53.5,   48.6,   41.3,   46.4,   37.7,   39.8,   33.2,   29.2,   25.8,   31.1,   33.8,   22.3,   29.7,   27.7,   18.3,   23.2,   31.1,   22.9,   19.4,   17.6,   14.7,   16.8,   30.3,   26.4,   19.1,   24.3,   31.1,   14.1,   19.3,   20.0,   16.5
1999/07/23 03:00,   37.7,   48.0,   52.3,   40.8,   51.5,   43.2,   45.9,   30.5,   30.9,   27.5,   26.5,   35.4,   23.4,   22.2,   27.3,   19.2,   22.8,   24.6,   24.5,   21.4,   23.8,   15.8,  999.0,   30.2,   26.1,   23.0,   22.2,   28.5,   21.3,  999.0,   20.4,   18.0
1999/07/23 03:10,   38.3,   53.3,   51.2,   45.8,   53.3,   47.6,   38.2,   34.4,   28.4,   24.8,   26.2,   23.5,   20.5,   25.0,   16.7,  999.0,   18.5,   21.4,   22.9,   19.6,   23.1,   18.2,   19.0,   29.0,   26.8,   23.3,   19.6,   29.1,   24.2,   26.4,   19.9,   17.9
1999/07/23 03:20,   32.0,   48.9,   54.1,   43.8,   54.0,   46.6,   30.9,   32.9,   29.7,   25.8,   26.7,   18.9,   15.2,   26.1,   15.7,  999.0,   17.4,   17.9,   19.3,   23.5,  999.0,   15.8,   18.7,   30.8,   17.0,   18.1,   18.7,   34.8,   30.2,   23.9,   18.5,   21.0
1999/07/23 03:30,   29.3,   43.5,   55.1,   42.9,   54.5,   45.1,   33.4,   28.4,   30.5,   29.0,   22.3,   19.3,   14.9,   21.7,   16.6,  999.0,   17.6,   20.2,   17.9,   19.0,  999.0,   15.8,   22.4,   32.5,   17.0,   16.0,   17.5,   32.4,   30.0,   23.6,   17.3,   18.6
1999/07/23 03:40,   31.3,   49.2,   55.6,   47.9,   54.5,   49.0,   34.4,   27.2,   28.4,   28.3,   29.0,   29.1,   20.8,   20.8,   21.9,  999.0,  999.0,   18.5,   16.9,   19.5,   16.0,   19.4,   33.0,   27.6,   19.1,   19.5,   19.6,   29.8,   28.6,   26.0,   20.8,   23.8
1999/07/23 03:50,   40.4,   53.7,   51.3,   51.6,   55.7,   45.2,   30.1,   28.2,   27.1,   27.4,   29.6,   33.4,   21.2,   19.1,   16.5,  999.0,   16.3,   21.5,   28.0,   25.6,   18.4,   19.0,  999.0,   30.4,   21.1,  999.0,   16.9,   19.3,   28.1,   26.7,   20.9,   27.9
1999/07/23 04:00,   48.3,   59.5,   52.8,   55.0,   55.6,   45.4,   32.5,   31.5,   34.7,   26.0,   23.5,   32.6,   22.2,   16.4,  999.0,   16.8,   18.6,   22.8,   27.8,   26.1,   18.0,   17.2,   24.2,   29.3,   25.1,   20.0,   17.2,   21.1,   24.8,   23.3,   16.6,   31.8
1999/07/23 04:10,   42.2,   55.1,   53.8,   51.3,   56.4,   48.4,   41.1,   29.0,   32.7,   29.2,   27.0,   35.8,   22.8,   17.9,   17.9,  999.0,   17.6,   20.7,   28.3,   30.0,   20.9,   20.9,   28.8,   25.1,   21.8,   27.0,   22.4,   19.1,   26.1,   23.1,   21.6,   30.8
1999/07/23 04:20,   44.2,   40.2,   43.8,  999.0,  999.0,   41.6,   42.1,   25.7,   22.6,   27.1,   27.9,   31.1,   25.4,   17.2,   17.7,   18.1,   19.0,   22.5,   30.9,   24.9,   18.5,   18.6,   31.6,   27.2,   20.0,   26.3,   25.2,   21.1,   22.3,   24.5,   24.4,   20.2
1999/07/23 04:30,   36.3,   36.2,   42.6,   46.5,   49.4,   47.9,   39.7,   28.3,   22.8,   26.0,   30.9,   23.1,   20.6,   17.1,   15.4,  999.0,  999.0,   19.9,   26.6,   32.2,   20.6,   18.9,   29.0,   28.8,   22.4,   24.6,   27.0,   19.1,   27.5,   26.7,   17.1,  999.0
1999/07/23 04:40,   38.6,   34.5,   40.7,   45.2,   46.5,   40.7,   42.3,   34.2,   24.3,   26.5,   28.7,   17.3,  999.0,   19.3,  999.0,   20.7,   17.6,   20.3,   18.9,   25.0,   18.6,   19.0,   32.2,   31.9,   25.3,   15.1,   28.4,   20.8,   25.4,   28.3,  999.0,  999.0
1999/07/23 04:50,   42.6,   37.7,   42.4,   42.5,   41.4,   42.9,  999.0,   39.2,   26.3,   25.4,   24.9,   20.3,   24.3,   18.0,  999.0,   17.2,   14.8,   18.4,   18.6,   30.5,   19.9,   15.7,   32.2,   30.2,   24.3,   18.9,   22.4,   20.8,   25.4,   26.3,  999.0,  999.0
1999/07/23 05:00,   38.2,   36.6,   39.4,   38.1,   39.3,   42.0,  999.0,   36.4,   25.6,   29.6,   30.1,   18.2,   14.8,   18.4,   22.0,  999.0,   20.0,   18.1,   22.5,   19.9,   24.0,   18.8,   24.2,   26.4,   21.6,   17.4,   24.7,   21.0,   23.1,   26.3,  999.0,  999.0
1999/07/23 05:10,   38.4,   34.7,   40.7,   39.4,   40.1,   44.2,   32.6,   29.2,   31.3,   36.0,   28.2,   20.4,  999.0,   19.9,   20.5,  999.0,   20.0,   18.7,   17.8,   19.7,   22.2,   19.8,   25.1,   22.8,   19.3,   22.8,   25.2,   18.1,   20.4,   25.3,   15.9,  999.0
1999/07/23 05:20,   41.6,   41.2,   40.3,   40.9,   41.3,   39.8,   30.0,   25.5,   33.5,   36.2,   30.9,   23.0,   18.9,   21.7,   21.0,   18.9,   16.5,   17.2,   20.8,   18.8,   20.7,   19.3,   23.9,   33.5,  999.0,   20.4,   20.3,   21.0,   17.4,   19.7,   19.1,  999.0
1999/07/23 05:30,   45.6,   41.0,   41.9,   44.4,   41.9,   36.7,   29.8,   28.9,   39.0,   36.7,   29.5,   18.1,   22.2,   22.5,   20.4,  999.0,   19.5,   15.2,   22.2,   19.1,   18.7,  999.0,   23.9,   25.6,   23.1,   19.1,   22.1,   22.7,   17.6,   16.8,   17.6,   21.7
1999/07/23 05:40,   33.4,   39.0,   33.6,   36.1,   37.2,   36.3,   36.3,   33.3,   36.1,   32.0,   30.6,   20.8,   18.3,   19.9,   21.1,   18.5,  999.0,  999.0,   26.3,   19.6,   20.5,  999.0,   20.6,   20.3,   26.2,   22.0,   19.8,   21.6,   16.9,   18.8,   19.3,   20.7
1999/07/23 05:50,   30.6,   36.2,   34.0,   32.2,   32.2,   26.1,   24.9,   29.7,   27.1,   33.6,  999.0,   27.6,   23.9,   18.0,   19.1,  999.0,  999.0,   18.0,   21.5,   21.9,   20.3,   17.1,   17.8,   20.6,   31.1,   21.5,   16.9,   19.7,   20.4,  999.0,   21.0,  999.0
1999/07/23 06:00,   36.1,   38.3,   36.2,   36.1,   31.5,   29.4,   20.9,   21.4,   28.9,   34.6,   30.0,   27.2,   24.0,   20.4,   18.7,   18.2,  999.0,   18.9,   17.5,   20.4,   20.8,   23.1,  999.0,   18.7,  999.0,   19.3,   22.2,   21.2,   20.4,   22.7,   23.8,   18.6
1999/07/23 06:10,   31.6,   42.6,   40.5,   41.4,   37.8,   36.0,   25.3,   25.9,   27.1,   31.1,   25.7,   22.9,  999.0,   17.8,   19.9,   14.7,   16.8,   20.1,   15.9,   19.0,   20.1,   16.4,   19.2,   13.6,   18.9,   17.0,   18.0,   19.8,   24.2,   22.2,   29.8,   16.5
1999/07/23 06:20,   33.0,   38.9,   37.4,   40.9,   37.5,   32.7,   27.6,   25.3,   31.0,   28.2,   27.6,   22.2,  999.0,   16.0,   16.0,   22.9,   15.4,   16.8,   19.6,   19.3,   17.5,   17.4,  999.0,  999.0,   19.3,   18.2,  999.0,   18.2,   26.0,   18.9,   25.3,   15.4
1999/07/23 06:30,   35.1,   35.9,   41.4,   38.3,   37.4,   31.6,   34.4,   33.4,   29.4,   29.2,   28.0,   24.1,   20.5,   21.0,   20.6,   21.1,   18.5,   16.4,   18.4,  999.0,   21.7,   16.0,   14.8,   17.0,   15.9,   13.6,   19.1,   18.0,   23.3,   17.9,   21.0,   20.5
1999/07/23 06:40,   35.1,   37.4,   38.6,   38.1,   31.8,   31.0,   34.5,   34.8,   30.9,   37.5,   22.9,   27.0,   20.5,   17.0,   17.4,   19.2,   16.2,   16.6,   16.7,   13.2,   19.3,  999.0,  999.0,  999.0,   12.7,  999.0,   17.2,   19.4,   20.8,  999.0,   19.4,   23.2
1999/07/23 06:50,   37.1,   35.8,   38.0,   39.0,   33.8,   34.3,   29.3,   32.5,  999.0,   38.7,   22.5,   24.1,   15.0,   19.5,   20.9,   15.2,   18.4,  999.0,   17.0,   18.4,   23.4,   15.5,  999.0,   17.9,   16.1,   16.0,   20.0,   19.5,   19.2,   17.1,   20.6,   19.8
1999/07/23 07:00,   37.6,   34.3,   35.3,   33.5,   36.2,   35.6,   36.4,   39.5,   39.0,   29.7,   22.2,   21.4,  999.0,  999.0,   19.0,   19.7,   18.2,  999.0,   18.8,   15.4,  999.0,   17.2,   17.0,   13.0,   18.1,  999.0,   18.2,   20.0,   22.5,   24.2,   21.4,   19.6
1999/07/23 07:10,   34.3,   33.1,   31.6,   35.8,   41.7,   39.4,   37.0,   36.3,   28.1,   25.0,   21.4,   25.5,   17.6,   15.0,   16.3,   19.7,   16.5,  999.0,  999.0,   18.0,  999.0,   19.6,   20.2,   17.0,   17.2,  999.0,   20.3,   18.7,   19.9,   21.4,   20.1,   23.1
1999/07/23 07:20,   32.8,   32.3,   32.6,   35.7,   41.4,   37.6,   40.2,   33.6,   22.8,   23.4,   24.6,   24.7,   18.9,  999.0,  999.0,  999.0,   20.9,  999.0,  999.0,   21.3,   12.9,   21.9,   19.9,  999.0,   18.8,   18.4,   17.5,   21.3,   22.8,   16.5,   18.8,   19.9
1999/07/23 07:30,   35.7,   31.9,   33.0,   34.4,   35.3,   38.6,   35.9,   39.2,   30.3,   23.8,   32.6,   24.1,  999.0,  999.0,   15.4,   19.7,   21.3,   18.9,  999.0,   22.3,  999.0,   21.8,   16.1,   18.8,   18.8,   20.4,   15.2,   22.0,   21.4,  999.0,  999.0,   22.1
1999/07/23 07:40,   37.0,   32.6,   34.8,   35.6,   47.4,   40.3,   39.1,   39.4,   26.9,   25.8,   22.9,   17.2,  999.0,   15.6,   17.3,   16.2,   17.9,   19.5,  999.0,   21.4,   16.5,   20.2,   18.6,   19.0,   19.6,   19.3,   17.3,   24.4,   17.9,  999.0,   17.6,   19.8
1999/07/23 07:50,   33.8,   34.3,   35.6,   42.7,   51.2,   41.2,   34.4,   29.4,   27.2,   24.2,   26.3,   20.3,   20.7,   19.6,   16.2,   17.0,   16.6,  999.0,  999.0,   19.5,   19.6,  999.0,   19.3,   19.9,   19.2,   17.4,   16.3,   19.4,   21.4,  999.0,   16.8,  999.0
1999/07/23 08:00,   41.7,   39.6,   39.8,   49.1,   49.0,   38.9,   38.8,   31.0,   27.2,   25.4,   22.3,   22.2,  999.0,   13.5,   17.9,  999.0,  999.0,  999.0,  999.0,   18.1,   19.7,  999.0,   19.1,   21.1,   18.4,   22.3,   16.5,   18.6,   27.2,  999.0,   17.1,   17.7
1999/07/23 08:10,   41.1,   45.0,   41.9,   44.1,   41.8,   43.5,   38.5,   30.7,   29.6,   23.8,   23.4,   27.8,   18.5,  999.0,   19.5,   20.3,   16.6,  999.0,  999.0,   24.7,   20.1,  999.0,   20.6,   23.6,   16.4,   21.8,   18.7,   22.7,   25.0,   16.5,   18.9,   19.0
1999/07/23 08:20,   40.3,   39.9,   46.1,   46.7,   43.1,   41.5,   39.2,   30.5,   27.9,   22.1,   22.2,   15.1,   18.2,   20.1,   17.7,   16.4,  999.0,  999.0,  999.0,   22.3,   18.6,   17.7,  999.0,   24.8,   15.4,   19.8,   18.4,   18.6,   27.8,   34.0,   20.4,   17.5
1999/07/23 08:30,   36.6,   34.1,   35.7,   42.0,   46.4,   41.0,   38.6,   30.4,   29.9,   25.1,   23.5,   17.9,   23.0,   18.3,   18.3,   20.4,   17.4,  999.0,   19.4,   15.4,   15.0,  999.0,   20.0,   20.7,   21.6,   18.7,  999.0,   21.9,   24.0,   21.6,   22.5,   23.1
1999/07/23 08:40,   41.0,   38.2,   38.1,   39.4,   43.9,   37.8,   37.0,   32.6,   25.5,   24.1,   16.5,   18.7,   17.6,   18.3,   17.7,   17.1,   17.3,  999.0,  999.0,   19.9,   17.7,  999.0,   14.5,   18.4,   21.5,   19.4,   19.4,   20.7,   22.9,   26.4,   22.4,   23.7
1999/07/23 08:50,   43.0,   40.7,   40.0,   43.5,   45.8,   38.9,   37.8,   27.9,   25.9,   29.7,   18.1,   19.6,   18.0,  999.0,   18.8,   17.2,  999.0,  999.0,   15.9,   18.5,   15.7,   19.5,  999.0,   16.4,   16.3,   20.5,   20.7,   21.6,   23.1,   28.6,   26.1,   26.8
1999/07/23 09:00,   48.0,   42.1,   40.7,   43.9,   42.5,   44.6,   46.3,   29.5,   25.0,   28.4,   16.2,   18.6,   20.5,  999.0,   16.1,  999.0,  999.0,  999.0,  999.0,   17.7,  999.0,  999.0,  999.0,   16.6,  999.0,   21.6,   22.3,   19.8,   31.0,   29.3,   25.0,   29.2
1999/07/23 09:10,   48.4,   53.5,   38.4,   41.5,   40.6,   45.8,   43.5,   31.6,   30.9,   29.7,   19.5,  999.0,   18.6,   14.2,   18.4,   17.3,   20.0,  999.0,   17.4,   19.0,   18.9,  999.0,   16.3,   12.1,   19.3,   19.4,   19.2,   23.9,   34.2,   29.3,   25.6,   27.9
1999/07/23 09:20,   46.0,   47.0,   37.5,   41.0,   39.6,   41.5,   41.0,   28.2,   35.5,   34.2,   23.1,   24.6,   21.2,  999.0,  999.0,   19.2,   13.8,   21.2,   16.0,   18.2,   15.8,  999.0,  999.0,   19.4,   18.1,  999.0,   22.2,   31.0,   28.2,   32.9,   33.5,   28.8
1999/07/23 09:30,   50.7,   50.4,   41.2,   41.0,   45.5,   39.2,   37.1,   32.6,   31.0,   27.8,   18.7,   17.7,   15.7,   23.8,   17.6,   15.1,   18.6,  999.0,  999.0,   18.2,  999.0,  999.0,  999.0,   17.9,   17.9,   22.3,   30.4,   28.8,   27.3,   29.6,   25.6,   25.6
1999/07/23 09:40,   53.0,   52.7,   43.4,   40.5,   42.3,   39.1,   34.5,   32.4,   34.0,   36.0,   24.8,   21.0,   18.7,   18.3,   15.6,   18.2,   20.3,  999.0,   16.2,   16.3,   14.1,  999.0,  999.0,  999.0,   22.0,   18.1,   28.8,   31.2,   28.5,   30.9,   25.3,   25.4
1999/07/23 09:50,   52.9,   55.0,   49.5,   44.0,   43.1,   44.0,   41.3,   35.3,   33.6,   35.6,   31.7,   23.9,   20.8,   20.1,  999.0,   21.5,   19.9,  999.0,   18.2,   22.9,   19.0,  999.0,  999.0,   17.8,   19.8,   18.2,   16.7,   29.4,   26.2,   28.9,   24.9,   19.2
1999/07/23 10:00,   53.6,   56.2,   51.1,   44.4,   40.1,   41.7,   39.1,   36.4,   34.1,   28.5,   24.2,  999.0,  999.0,  999.0,  999.0,   18.2,   20.4,  999.0,   14.0,   20.6,   22.6,  999.0,  999.0,   17.1,   19.3,   18.3,  999.0,   25.7,   30.5,   22.2,   29.3,   18.8
